{"data":{"norad_id":68884,"epoch":"2026-09-20T03:34:17.628096Z","epoch_age_seconds":45861,"freshness":"FRESH","line1":"1 68884U 26095W   26263.14881514  .00000786  00000+0  13218-3 0  9995","line2":"2 68884  51.8989 188.2148 0001018  77.6173 282.4903 14.79930150 21717","mean_motion":14.7993015,"eccentricity":0.0001018,"inclination_deg":51.8989,"raan_deg":188.2148,"arg_perigee_deg":77.6173,"mean_anomaly_deg":282.4903,"bstar":0.00013218,"rev_number":2171,"period_min":97.301889552017,"perigee_km":628.83124394368,"apogee_km":630.25800792272,"semimajor_km":7007.6816259332,"source":"CELESTRAK","updated_at":"2026-09-20T09:00:24.539742Z"}}